RH
6 5 4 4 3 2 2 2 1 2 3 6 8 10 13 14 15 17 20 27 33 36 36 36 35 35 34 32 30 32 35 32 27 23 15 6 3 3 3 4 4 5 6 6 6 6 6 7 6 6 5 4 5 6 7 7 8 9 11 13 15 17 20 24 26 28 29 30 30 30 29 30 29 29 28 27 26 25 25 24 23 23 22 21 21
6 6 5 5 5 4 3 3 2 2 1 2 1 3 5 7 8 9 11 16 20 25 29 30 30 30 30 32 34 37 38 33 29 23 13 6 5 4 3 4 4 5 6 6 7 6 6 7 6 6 5 5 5 6 7 8 9 10 12 13 15 18 21 25 27 28 28 29 29 29 29 29 29 29 29 27 27 26 25 25 24 23 23 22 22
6 6 6 6 6 5 4 4 3 3 2 2 1 2 2 3 3 4 5 5 7 11 15 17 20 25 29 33 39 41 39 33 30 24 13 6 5 4 4 4 4 5 6 7 6 6 6 6 6 6 5 5 6 7 8 9 10 11 12 14 16 19 22 25 27 28 28 28 28 28 28 29 29 30 30 28 28 27 26 25 25 24 24 23 22
7 6 7 7 7 7 6 6 5 3 3 2 2 2 1 2 2 2 3 2 3 4 6 9 18 26 30 34 39 42 39 34 29 22 10 4 4 3 4 4 5 6 6 7 6 6 6 6 6 6 5 6 7 8 9 10 11 11 13 15 17 20 23 26 27 28 27 27 27 28 29 30 31 31 30 30 29 28 27 27 26 25 24 24 23
7 7 7 7 7 8 7 7 6 5 5 3 3 3 2 3 2 3 3 3 4 4 6 10 18 24 26 29 33 35 33 28 23 17 8 2 3 3 3 4 5 6 7 7 6 6 6 7 7 6 6 6 7 9 10 11 11 12 14 16 18 21 24 27 28 28 28 28 28 30 31 31 32 32 31 31 30 30 29 28 27 26 26 25 24
7 7 8 8 7 8 7 7 7 7 6 5 4 4 4 4 4 4 4 4 5 5 6 9 12 17 20 22 23 25 26 21 18 16 10 3 3 3 3 4 5 6 7 7 7 6 6 7 7 7 6 7 8 9 10 11 11 12 14 16 18 22 26 28 30 30 29 30 30 32 34 34 34 34 33 33 32 32 31 30 29 27 27 26 25
8 7 7 7 7 8 8 8 7 7 6 6 5 5 5 5 5 5 5 5 5 6 7 6 7 10 13 15 17 20 23 22 21 21 16 7 3 3 3 4 5 6 7 7 7 7 7 7 8 8 7 7 8 9 10 11 12 13 14 16 20 23 27 29 30 31 31 32 33 34 35 37 38 37 37 36 35 34 32 31 30 29 28 27 25
10 9 7 7 7 7 8 8 8 8 7 7 7 6 6 6 6 6 6 6 6 8 8 7 6 7 8 11 13 16 19 24 26 25 22 12 4 3 4 4 5 6 7 8 8 8 8 8 8 8 7 7 8 9 11 12 12 13 15 18 21 24 28 31 31 31 32 34 34 36 38 40 41 41 40 38 37 36 34 33 31 30 29 27 26
10 10 9 8 8 7 8 8 8 8 8 8 8 8 8 8 8 8 8 8 8 8 8 8 7 7 8 9 11 13 18 26 30 29 26 18 6 3 4 4 5 6 7 8 9 9 9 8 8 8 7 7 8 10 11 13 13 13 16 19 21 24 28 31 32 32 32 34 36 38 40 41 43 43 42 41 39 37 36 34 32 30 29 27 25
11 11 11 10 9 8 8 8 8 8 8 8 8 8 8 8 8 8 8 9 9 9 9 8 9 8 8 8 10 13 19 27 31 29 29 24 11 4 3 4 5 6 7 8 10 10 10 9 8 8 7 7 8 10 12 13 13 14 17 20 21 23 27 32 33 33 32 33 35 40 42 44 44 44 44 42 41 39 36 34 32 30 28 26 25
11 11 12 11 11 10 9 8 8 8 8 8 9 9 9 9 9 8 8 9 9 9 9 9 9 9 8 9 11 14 21 28 31 30 30 28 17 6 3 4 5 6 7 9 10 11 10 9 8 8 8 8 8 10 12 13 14 16 18 20 21 23 26 31 34 35 33 33 34 39 43 45 46 46 46 44 43 40 37 34 32 30 28 25 23
11 11 12 12 12 12 11 10 9 9 9 9 10 10 11 12 11 11 11 11 11 11 11 11 11 10 10 11 13 16 23 28 32 33 33 32 25 13 5 4 5 6 7 9 10 11 11 9 8 8 8 8 8 10 13 15 17 18 19 20 21 23 25 30 35 36 36 34 34 37 41 45 47 48 48 47 44 42 38 35 31 29 26 23 21
11 11 12 11 11 12 12 12 11 10 10 9 10 10 11 12 12 13 14 17 17 16 17 17 17 16 16 16 17 20 24 28 33 36 37 36 31 21 10 5 4 6 7 9 10 11 11 10 9 8 8 8 9 11 14 17 19 19 20 21 22 23 25 28 33 37 38 37 36 36 38 43 47 49 49 48 46 43 40 35 30 29 26 21 19
13 12 12 11 11 12 13 13 12 11 10 10 10 10 11 11 12 12 15 20 21 21 23 24 24 26 26 25 25 27 29 31 34 37 39 39 35 28 18 9 5 5 7 8 10 12 12 12 11 10 10 10 11 13 16 19 20 19 21 22 23 24 25 28 32 37 39 39 38 38 38 41 45 49 49 49 47 44 41 36 31 29 26 21 18
17 16 15 15 14 14 14 13 12 11 11 11 10 10 10 11 12 12 14 18 19 21 25 26 29 33 35 35 35 35 36 38 40 41 42 42 38 33 28 19 10 6 7 9 10 12 13 13 13 12 12 12 12 15 17 19 20 20 22 24 24 25 26 28 32 36 39 40 40 40 40 40 43 48 50 50 49 46 42 38 33 30 26 21 17
20 21 20 19 18 17 16 14 13 12 12 12 12 12 13 13 14 14 15 17 17 18 21 23 28 32 35 38 42 43 43 43 45 47 48 47 43 38 34 30 22 11 7 8 10 12 13 14 14 13 14 14 15 17 19 20 20 21 23 24 26 27 28 30 34 38 40 41 42 43 43 43 44 48 51 51 51 49 44 39 35 30 25 21 16
22 22 21 21 20 20 19 17 15 15 15 15 15 15 16 16 16 16 16 18 19 19 19 20 22 24 27 33 39 44 46 47 48 50 52 53 51 44 38 34 30 22 12 8 10 12 13 14 15 15 16 17 19 20 21 23 25 26 26 25 27 29 30 31 36 40 42 43 44 45 46 46 46 49 52 53 53 50 44 39 34 29 24 20 15
29 30 28 27 25 24 25 25 23 21 19 19 19 18 18 18 18 18 18 19 19 20 20 20 20 19 20 23 29 37 43 48 52 55 57 57 56 53 47 39 33 27 19 12 10 11 14 15 15 16 18 20 22 23 24 26 29 31 31 29 28 30 32 32 36 43 46 45 46 47 48 49 49 51 53 54 55 51 44 37 32 28 22 18 13
29 31 32 33 32 31 31 31 30 28 26 25 25 24 24 24 24 24 23 22 21 20 20 21 21 21 19 19 22 27 35 43 51 57 61 61 60 60 59 52 43 34 25 18 12 11 13 15 16 16 18 23 25 24 26 29 30 32 35 34 31 30 33 34 37 45 48 48 49 50 51 52 53 55 56 56 56 52 44 36 30 26 21 16 12
29 29 34 38 41 42 41 39 37 35 33 32 32 32 31 31 30 30 30 29 28 26 24 24 24 23 23 21 20 21 26 34 43 53 58 61 64 66 65 64 59 49 37 25 17 13 12 14 17 17 18 23 26 27 28 31 32 33 35 38 36 31 33 36 39 47 51 51 53 53 54 56 57 59 59 58 58 53 43 35 29 24 20 15 11
44 43 45 47 51 54 55 54 50 47 43 40 38 37 37 36 35 35 35 34 34 33 31 30 29 28 27 25 24 22 22 24 31 41 50 57 65 69 70 69 68 63 52 38 26 19 15 14 16 19 19 22 26 29 31 34 36 36 35 39 41 34 33 37 41 48 55 55 56 57 57 59 61 63 62 60 59 54 43 35 27 22 18 13 10
59 58 57 57 59 62 63 64 63 61 57 53 49 46 43 42 41 40 40 39 38 37 36 35 34 33 31 30 29 27 25 23 24 30 39 50 61 69 73 75 73 71 66 54 40 30 22 17 16 18 20 23 25 29 34 36 38 39 36 38 44 39 34 38 43 49 57 60 60 60 59 61 65 67 65 62 59 51 41 32 25 19 16 12 9
69 67 66 66 66 68 70 72 73 72 70 65 60 55 51 50 48 46 44 43 42 41 40 39 38 37 36 34 33 31 30 27 24 27 34 44 56 66 73 77 77 76 74 69 58 46 35 26 20 18 20 23 26 30 35 38 39 41 39 38 45 44 36 39 44 49 59 64 63 63 63 65 69 71 69 64 57 46 35 27 20 15 13 10 7
68 66 66 66 67 69 72 75 78 80 81 80 75 68 62 58 55 52 49 47 46 45 44 44 44 44 43 41 38 35 33 32 30 31 36 43 53 62 70 76 79 80 81 80 76 67 56 44 32 25 22 24 27 30 33 36 38 41 41 40 49 49 40 40 45 50 61 68 67 67 69 70 73 75 72 64 53 40 27 20 15 11 10 8 7
65 61 59 57 57 59 62 64 68 73 79 84 87 86 82 76 71 66 61 57 55 54 54 55 55 55 53 50 47 44 40 38 36 35 36 40 46 52 60 67 73 78 83 87 88 85 80 71 58 46 36 31 32 33 35 37 39 42 44 46 55 54 44 42 46 52 63 72 72 72 73 74 77 78 72 62 49 33 21 15 12 10 8 7 7
60 54 49 45 43 43 46 49 51 55 59 65 72 78 83 86 87 87 84 78 74 69 66 65 65 65 63 60 57 53 50 47 45 42 39 38 39 40 45 51 58 65 73 81 89 93 95 93 87 79 68 58 51 46 44 44 46 50 53 57 63 59 48 44 47 53 64 73 75 76 77 77 79 80 74 60 42 26 17 13 10 9 8 7 8
43 34 31 29 28 27 29 32 35 37 40 44 48 52 58 64 71 78 84 88 90 89 85 79 76 74 73 73 70 67 64 60 57 55 51 48 45 43 42 43 46 50 55 63 72 82 93 99 100 98 94 90 83 76 71 67 66 68 68 69 71 64 51 47 50 55 64 73 76 78 79 80 82 84 77 59 35 20 14 11 8 7 8 8 8
26 21 21 21 22 21 20 21 22 23 25 27 30 32 36 40 45 52 60 68 76 85 91 92 90 87 85 85 86 84 81 78 75 73 70 67 64 61 58 56 54 54 54 56 60 67 78 89 97 100 100 100 99 98 95 93 91 88 85 83 79 67 53 50 54 58 65 72 78 81 82 84 87 86 75 53 31 17 12 10 8 8 8 9 9
25 25 26 26 26 24 22 22 22 22 22 20 20 21 23 25 29 34 39 45 52 60 70 79 85 90 92 93 95 96 95 94 91 89 87 86 85 83 81 78 76 74 71 69 67 67 70 77 87 95 100 100 100 100 100 100 100 99 97 94 83 66 56 56 59 62 66 72 79 84 87 89 91 85 69 48 29 17 12 9 8 9 9 10 10
38 36 35 35 34 32 31 31 30 29 28 25 22 20 20 20 21 23 26 32 38 44 50 57 63 71 78 84 90 94 98 99 99 99 98 97 97 96 95 94 91 89 87 84 81 77 75 75 80 90 98 100 100 100 100 100 100 100 102 96 80 65 60 62 64 67 70 74 80 87 92 94 93 84 66 45 28 15 10 9 9 9 10 11 11
51 49 48 48 44 41 39 36 35 36 36 34 30 26 26 24 20 19 20 23 28 34 40 48 53 57 61 66 72 78 85 90 94 98 100 101 101 100 99 97 95 92 91 90 89 87 83 80 80 86 95 100 100 100 100 100 100 101 101 91 76 68 67 69 71 73 76 78 82 91 96 96 94 84 62 39 23 12 9 9 10 10 11 12 13
67 66 65 62 56 50 47 43 42 43 43 42 39 34 33 31 27 23 21 21 23 26 30 38 48 55 58 59 59 60 65 70 76 81 86 91 97 100 100 97 94 93 93 91 90 89 88 86 84 86 92 99 101 100 100 100 100 101 98 88 78 75 76 78 78 79 81 82 85 94 98 97 94 82 57 34 20 13 10 10 11 12 13 13 14
77 75 71 67 61 56 53 51 48 47 47 48 47 45 41 39 36 32 28 27 26 24 24 27 34 45 52 55 55 53 52 52 54 57 60 64 72 82 94 100 99 97 97 95 92 91 90 90 89 89 93 98 100 100 100 100 101 101 96 88 84 84 85 86 86 85 85 86 91 98 99 98 93 77 52 33 21 15 12 12 12 13 14 15 16
71 69 66 64 61 58 56 55 53 52 52 52 54 54 51 48 45 42 39 38 36 32 30 28 29 33 40 45 48 48 46 43 41 39 39 39 40 47 65 87 98 100 100 99 98 97 95 94 94 95 97 100 100 100 100 100 101 101 98 94 94 94 94 92 90 89 88 90 96 98 97 97 92 73 51 33 21 16 15 13 14 14 15 17 18
69 69 69 68 67 64 62 60 60 59 57 56 56 57 57 55 53 51 48 46 46 45 43 42 39 39 41 43 43 42 41 39 36 33 31 29 27 26 38 67 92 100 100 100 100 100 100 99 99 100 100 100 100 100 100 100 100 101 100 99 99 100 99 95 93 92 93 95 97 95 95 97 89 70 50 34 22 18 16 15 15 16 16 18 20
76 76 75 74 72 70 68 68 68 67 64 62 61 61 60 59 59 59 57 54 53 53 54 55 54 52 52 50 47 44 41 39 36 34 30 28 27 25 36 66 93 100 100 100 100 101 101 101 101 101 101 101 100 100 100 100 100 100 101 99 96 96 97 96 95 95 96 96 94 93 96 95 84 65 47 32 23 19 17 16 16 17 18 20 22
84 81 78 76 75 73 73 73 73 74 72 67 64 65 65 65 65 66 65 64 64 63 63 62 60 58 56 52 49 46 43 41 39 36 33 32 32 31 44 74 97 100 99 100 100 100 101 101 101 101 100 100 100 100 100 100 100 100 101 99 95 93 94 95 96 97 96 93 93 95 96 91 78 61 43 30 24 21 18 18 17 18 21 22 23
87 84 80 78 78 76 76 77 76 76 75 72 69 69 70 71 72 72 72 72 73 73 71 67 62 59 56 53 51 49 48 48 47 43 40 39 39 40 53 81 100 101 99 101 100 100 101 100 100 100 100 100 100 100 100 100 100 100 100 100 97 95 95 94 94 95 93 92 94 96 93 86 72 54 38 29 25 22 21 20 19 21 24 25 26
89 87 82 80 79 78 78 80 80 79 77 75 74 74 75 77 78 79 81 82 82 80 77 72 66 63 60 59 59 59 59 58 57 56 55 55 55 59 71 90 101 100 99 100 100 100 101 100 100 100 100 100 100 100 100 100 100 100 100 100 98 96 95 92 90 89 88 91 96 96 90 79 63 47 34 28 26 25 24 23 23 25 27 29 31
89 86 83 80 80 82 84 84 84 85 84 82 80 79 82 84 83 85 89 91 89 85 82 77 72 69 68 68 69 70 69 68 69 73 78 79 80 84 91 98 100 100 100 100 100 100 100 100 100 100 100 100 100 100 100 100 100 100 100 100 99 96 93 90 87 85 85 89 94 94 85 70 55 43 35 31 29 29 27 26 27 28 30 32 35
90 85 84 84 85 89 93 93 91 91 90 90 88 86 87 89 89 91 94 94 91 89 86 82 79 77 76 77 80 81 80 81 85 90 94 96 96 97 99 100 100 100 100 100 99 100 100 100 100 100 100 100 100 100 100 100 100 100 100 100 98 95 92 90 87 85 85 88 92 91 79 63 50 42 37 34 32 32 31 30 30 31 33 36 38
87 84 88 93 92 93 97 98 97 95 93 93 95 94 92 92 92 94 95 95 93 92 91 88 86 85 86 87 89 89 86 86 90 94 97 99 100 100 100 100 100 100 100 100 100 100 100 100 100 100 100 100 100 100 100 100 100 100 100 101 98 94 91 90 88 87 87 88 90 86 72 57 49 43 38 36 35 34 34 34 35 36 38 40 41
82 85 93 101 100 98 99 98 97 98 97 97 99 97 95 94 95 95 95 94 95 95 94 93 93 93 94 96 97 96 92 89 88 91 96 99 100 100 100 100 100 100 100 100 100 100 100 100 100 100 100 100 100 100 100 100 100 100 101 101 98 92 89 88 88 88 89 89 87 80 67 55 48 44 40 38 38 38 38 39 40 41 43 44 45
85 90 97 102 102 101 101 98 96 98 99 101 102 99 95 96 98 98 96 95 96 96 95 96 98 99 100 101 101 100 98 97 95 95 98 100 100 100 100 100 100 100 100 100 100 100 100 100 100 100 100 100 100 100 100 101 102 101 99 98 96 93 89 87 86 87 88 88 83 75 65 56 50 46 43 42 42 42 42 43 44 45 46 47 47
94 95 99 101 101 101 100 97 95 96 98 100 103 102 98 97 99 99 98 98 99 98 97 98 99 101 103 103 103 101 100 100 100 99 99 100 100 100 100 100 100 100 100 100 100 100 100 100 100 100 100 100 101 101 101 101 101 99 96 95 95 94 92 89 86 86 86 84 78 69 62 56 51 48 46 46 46 46 46 46 47 47 48 49 50
100 98 99 100 101 100 98 96 96 96 96 97 101 103 102 100 101 100 100 101 101 100 98 98 100 102 103 103 102 102 101 100 100 100 100 100 100 100 100 100 100 100 100 100 100 100 100 100 100 100 101 102 102 101 100 99 97 97 97 97 97 96 95 94 91 88 85 80 73 65 60 56 53 50 49 49 49 49 49 49 49 49 50 52 54
102 102 101 101 101 100 99 98 96 94 94 96 99 102 103 103 102 100 100 102 103 100 98 99 102 104 104 103 101 101 101 101 100 100 100 100 100 100 100 100 100 100 100 100 100 100 100 100 101 102 102 102 100 98 98 98 98 98 99 100 100 98 97 95 91 86 80 74 68 63 60 56 53 52 51 51 51 51 51 51 51 53 55 57 60
101 101 101 101 101 99 99 97 94 92 94 97 98 100 103 103 101 100 102 105 103 99 97 99 102 104 104 103 101 100 100 100 100 100 101 101 100 100 100 100 100 100 100 101 101 101 101 102 102 102 101 99 98 99 100 101 101 101 101 101 100 98 96 92 86 80 75 70 66 63 59 57 55 54 53 52 52 51 52 53 55 57 59 61 64
100 100 101 102 101 99 98 97 96 97 99 99 99 101 103 102 99 100 104 105 102 99 98 100 103 105 104 103 101 100 100 100 100 100 101 101 101 101 100 100 100 100 100 101 101 101 101 101 101 100 100 100 101 102 102 101 100 100 100 100 99 96 93 88 82 78 74 70 66 63 61 59 58 57 55 53 51 52 53 55 57 59 61 65 68
100 99 100 101 101 99 98 99 100 102 102 101 101 103 103 101 99 102 105 104 101 100 100 101 103 104 103 102 101 100 100 100 100 100 100 100 100 100 100 101 101 100 101 101 101 100 101 100 100 100 101 101 102 102 101 100 99 99 100 99 97 94 89 85 81 77 74 71 68 65 64 62 60 57 55 53 53 54 56 58 60 64 67 71 74
99 99 100 101 101 101 100 102 103 103 102 102 102 104 103 100 100 103 104 104 103 101 101 102 104 103 102 101 100 100 100 100 100 100 100 100 100 100 100 100 100 100 101 101 102 102 102 101 101 101 101 101 101 101 101 101 101 100 99 96 92 89 85 82 80 77 74 71 69 66 64 62 59 57 56 56 58 60 62 65 69 72 75 78 79
Wind_Speed
23 26 29 30 32 33 34 35 36 37 38 39 41 41 41 41 41 40 39 38 38 38 39 39 39 39 38 37 36 34 33 32 31 30 29 29 30 32 32 32 32 32 33 33 32 31 30 29 28 28 27 26 25 24 24 23 22 22 22 22 23 23 24 24 24 25 25 25 26 28 28 29 29 29 29 29 30 31 32 33 34 34 34 34 34
22 24 25 27 29 31 34 36 36 37 37 38 39 39 40 41 41 40 39 39 39 39 39 40 39 37 36 35 33 32 32 31 30 29 28 29 32 33 33 34 34 34 34 34 33 32 31 30 29 29 29 28 27 26 25 24 23 23 23 23 24 24 24 24 25 25 26 26 26 28 29 29 30 30 29 29 30 31 32 32 33 34 34 34 34
22 24 25 26 26 28 31 33 34 35 36 36 36 37 38 39 39 38 37 38 38 38 38 37 36 35 34 33 31 32 33 32 31 31 31 32 34 35 35 36 37 36 35 35 34 33 32 31 31 31 31 30 29 28 26 25 24 24 24 24 24 25 25 25 26 26 27 27 27 29 29 29 30 30 29 30 30 31 32 32 33 33 34 34 34
21 22 24 25 26 27 29 30 32 33 34 34 34 35 36 36 36 35 35 35 35 36 35 34 33 33 34 34 33 35 35 34 34 35 35 36 36 37 38 38 38 37 36 35 35 34 34 33 33 33 32 32 31 29 27 26 25 25 25 25 25 26 26 27 27 27 28 28 28 29 29 29 30 29 29 30 30 31 31 32 33 33 34 34 34
20 21 22 24 25 26 28 29 30 32 32 32 32 33 34 33 33 33 33 34 33 33 32 32 33 34 35 36 37 38 38 37 39 39 37 37 37 37 38 38 37 37 37 36 36 35 35 34 34 34 34 33 32 30 28 27 26 26 26 26 26 26 27 28 28 28 28 28 28 28 28 29 29 29 30 30 31 31 32 32 33 33 34 34 35
20 20 20 22 24 26 28 29 30 31 30 30 30 31 31 31 31 32 33 33 32 31 30 32 34 35 36 37 38 39 39 39 38 37 35 34 35 35 36 36 37 37 37 37 37 36 35 35 34 35 35 34 33 31 30 29 28 28 28 28 27 27 28 28 28 28 28 28 27 28 28 29 29 29 30 31 32 32 32 32 33 34 34 34 35
21 20 20 22 23 25 27 28 28 28 26 26 27 29 29 30 30 30 30 31 31 30 30 32 34 35 36 37 38 39 40 38 36 35 34 33 34 35 36 36 37 37 37 37 37 36 35 35 35 35 36 35 34 33 31 30 29 29 29 29 28 28 28 28 28 28 28 27 27 27 27 28 29 29 30 31 32 33 33 33 33 34 34 35 35
22 23 23 23 23 24 24 24 25 25 23 24 26 27 27 27 28 28 29 30 30 30 31 33 34 36 36 37 38 39 39 38 35 34 35 35 35 37 37 37 38 38 38 38 37 37 37 36 36 37 38 37 36 34 32 31 31 31 30 29 28 28 28 28 28 28 27 27 27 27 27 27 28 29 30 31 33 33 33 33 33 34 35 35 36
23 24 25 27 26 26 25 24 24 24 24 25 26 26 26 26 27 29 30 31 32 32 32 33 34 36 37 38 39 39 39 38 36 36 37 38 38 38 39 39 39 39 39 38 38 39 39 38 38 39 39 39 38 36 34 33 32 32 30 29 29 29 29 29 29 28 27 27 27 27 27 27 28 29 30 31 32 33 34 34 34 35 35 36 36
23 25 27 29 30 29 29 28 26 25 24 25 25 26 27 28 28 29 30 30 31 33 34 35 35 36 38 39 40 40 39 39 39 39 39 39 39 39 40 40 40 40 40 39 39 40 41 41 40 40 40 40 39 37 35 34 33 32 31 31 31 30 30 30 29 29 28 27 27 27 27 27 28 29 30 31 32 33 34 34 35 35 36 37 37
25 26 27 28 30 31 32 31 29 28 27 26 24 24 25 26 27 29 29 29 30 31 33 34 35 37 38 39 40 40 40 40 41 41 41 41 40 40 40 40 40 41 41 41 41 41 42 43 42 41 41 41 40 38 37 36 34 34 33 32 32 31 31 31 31 30 29 28 28 27 27 28 29 29 30 31 32 33 34 34 35 36 37 37 37
27 27 26 26 28 31 33 33 32 31 30 28 25 24 23 22 23 26 27 27 28 28 30 32 33 36 37 38 40 40 41 42 43 43 42 41 41 40 40 41 41 42 42 43 43 43 44 44 43 42 42 42 41 40 38 37 36 35 35 34 33 32 32 32 32 31 30 30 29 28 28 29 29 30 31 32 33 33 34 34 35 36 37 38 38
31 30 28 28 31 32 32 32 32 32 31 31 30 28 26 25 24 25 24 23 25 26 27 29 30 32 34 36 38 40 41 43 44 44 44 43 42 41 41 42 43 43 43 43 44 43 44 44 43 42 42 43 42 41 39 38 37 38 36 35 34 34 33 33 33 32 32 31 31 30 30 30 30 31 32 33 33 34 34 35 35 37 38 38 38
32 34 35 36 38 35 31 29 29 29 30 32 33 32 30 29 28 27 25 22 23 25 26 27 28 28 30 32 35 38 40 42 44 45 44 44 43 42 42 42 43 43 43 43 43 43 44 44 43 41 42 43 43 42 40 39 40 40 38 37 36 35 34 34 34 33 33 33 33 32 31 31 31 32 33 34 34 35 35 36 36 37 38 38 38
25 27 29 30 31 30 28 27 27 27 29 31 34 35 35 33 31 31 29 26 27 27 27 28 27 27 28 30 32 34 37 39 42 44 45 45 44 43 42 42 42 43 43 43 43 45 45 45 44 42 42 44 44 43 42 42 42 41 40 39 38 37 36 35 35 34 35 35 34 34 33 32 32 33 34 35 36 36 37 37 37 38 39 39 39
19 19 19 19 19 20 24 26 26 27 29 31 33 34 35 35 35 34 32 31 30 31 31 30 30 30 30 31 31 32 34 36 39 41 43 45 45 44 43 42 42 42 43 44 45 46 47 47 46 43 42 44 45 45 45 44 44 42 41 41 40 39 37 36 36 35 35 36 35 35 34 33 33 34 35 36 37 37 38 38 39 39 40 40 40
23 22 22 21 19 18 20 22 25 27 28 30 32 33 34 34 35 36 35 34 32 31 31 32 33 34 35 34 34 34 34 35 36 37 38 40 43 45 45 44 43 42 43 44 46 47 48 49 48 45 44 45 47 47 47 46 45 44 43 43 42 40 39 38 37 37 36 36 36 36 35 34 34 34 35 37 38 38 39 39 40 40 40 41 41
24 22 22 22 22 19 18 19 21 24 25 26 28 29 31 31 32 34 34 34 33 32 32 32 34 37 39 39 39 38 38 37 37 37 37 38 40 43 44 44 44 43 42 43 46 48 50 50 50 48 47 48 49 50 48 47 46 44 44 44 44 42 41 40 39 38 38 37 37 37 36 35 35 35 36 37 39 39 40 40 41 41 41 42 41
32 29 25 23 22 21 19 18 18 20 21 22 23 25 27 28 29 30 31 33 34 35 35 35 36 39 41 42 43 44 43 42 40 40 40 40 40 41 41 43 43 43 43 43 45 48 51 52 52 51 50 51 52 52 50 49 47 46 45 45 45 44 43 41 40 39 39 39 38 37 36 36 36 36 37 38 39 40 41 41 42 42 42 42 42
35 35 31 27 25 25 25 23 22 22 22 23 23 24 26 27 29 30 31 31 33 34 35 37 39 40 41 42 44 46 47 47 45 44 44 43 42 42 41 42 42 43 43 43 45 47 51 53 53 53 53 53 54 54 53 51 50 48 46 46 47 46 44 43 42 41 41 40 39 38 37 36 37 38 38 39 40 41 41 42 42 43 43 43 43
30 32 32 31 31 32 32 31 30 29 28 28 28 28 29 30 31 32 33 33 33 34 36 37 39 40 41 42 43 45 48 50 51 50 49 47 46 45 44 43 43 43 43 44 44 46 49 52 54 55 55 55 56 56 55 53 52 51 49 48 48 47 46 44 43 42 42 41 40 39 38 38 38 39 40 41 41 42 42 42 43 43 43 44 44
35 36 38 40 41 41 40 39 38 36 35 34 34 34 34 34 34 34 35 36 37 38 39 40 41 43 45 45 46 47 50 52 54 55 54 52 49 48 46 45 44 44 43 44 44 45 47 50 54 55 56 57 57 57 56 55 54 53 51 50 49 48 47 46 45 44 43 42 41 40 39 39 40 40 41 42 42 42 42 43 43 43 44 44 44
40 40 41 43 44 44 44 43 43 42 40 39 39 39 38 39 39 39 39 39 40 42 43 44 44 44 45 46 47 49 52 55 56 56 56 55 53 50 49 47 46 45 44 44 44 45 46 48 51 54 56 57 58 57 57 57 56 55 54 52 51 50 49 47 46 45 43 43 42 41 40 40 41 41 42 43 43 43 43 42 43 43 44 44 45
39 39 40 40 41 41 41 41 41 41 41 40 40 40 40 40 40 41 42 43 43 44 44 44 44 43 43 44 46 48 51 53 54 54 54 54 53 52 51 50 49 47 46 45 45 45 46 47 49 52 55 57 58 59 58 58 57 56 55 54 53 52 50 48 47 45 44 44 44 42 41 41 42 42 43 44 44 44 43 42 43 43 44 44 45
39 40 40 40 40 40 40 41 42 41 41 39 38 38 38 39 39 39 40 40 41 42 42 42 41 40 39 39 41 43 45 48 49 50 51 51 52 52 52 51 51 50 49 48 47 47 47 47 48 50 52 54 57 58 59 59 58 57 56 55 55 54 51 49 48 46 45 45 45 44 43 42 43 43 44 44 44 44 43 43 43 43 44 45 45
42 44 46 46 46 45 44 44 44 45 45 44 42 40 38 37 37 38 38 38 38 38 38 38 37 36 36 36 36 38 40 42 44 45 46 47 48 49 50 50 51 51 51 50 50 49 49 48 48 49 50 52 54 57 58 58 58 57 57 57 56 55 52 51 49 47 46 46 46 45 44 44 44 44 45 45 45 44 44 43 43 43 44 45 45
47 50 51 51 51 50 49 48 48 48 49 49 48 47 45 43 41 40 40 39 39 39 39 39 38 37 37 37 37 37 38 39 40 41 42 43 44 45 46 47 48 49 50 51 51 52 51 50 50 49 50 51 53 55 57 58 58 58 58 58 57 55 53 52 50 48 47 47 47 46 46 45 45 45 45 45 45 45 44 43 43 43 44 45 46
53 54 53 51 50 49 49 49 49 50 51 51 51 51 50 49 48 46 44 43 42 42 42 42 42 42 41 40 40 39 39 39 39 39 40 41 41 42 42 43 44 45 46 47 49 50 52 52 52 52 51 52 53 54 55 56 57 58 58 58 57 55 53 52 51 50 49 48 48 47 47 46 46 46 46 46 46 45 44 44 43 43 44 45 46
53 52 50 50 49 48 48 46 46 47 49 50 50 51 51 50 50 49 48 47 46 45 44 44 44 44 44 43 43 42 42 41 41 41 40 40 40 40 40 41 41 41 42 43 45 47 49 51 52 52 52 52 53 53 53 54 55 56 57 56 55 54 53 52 51 51 51 50 49 49 48 48 47 47 47 46 46 45 45 44 43 43 44 45 46
50 48 47 47 48 48 48 47 46 46 46 47 47 47 48 48 49 50 49 48 48 47 47 46 46 45 45 46 45 45 44 43 42 42 42 42 41 41 41 40 40 40 40 41 42 43 46 48 50 51 51 51 51 51 52 52 53 54 54 54 54 53 53 52 51 52 52 51 50 50 49 49 48 48 47 47 46 45 44 43 43 43 44 45 46
48 47 47 47 48 48 48 48 48 47 47 47 47 45 44 45 46 47 47 46 46 47 48 47 47 47 47 47 47 47 46 46 45 44 44 43 43 43 43 42 42 42 41 41 41 41 43 45 47 49 49 49 49 49 50 51 52 52 52 52 53 53 52 52 52 53 53 52 51 51 51 50 49 49 48 47 46 45 44 43 43 44 44 46 46
49 49 50 50 50 50 50 49 48 46 47 48 49 47 45 44 44 44 44 44 44 46 47 48 49 49 49 48 48 47 47 47 47 47 46 46 45 45 45 45 46 45 45 45 44 44 43 44 45 47 48 48 48 48 49 50 51 51 51 52 52 52 52 52 53 53 53 52 52 52 52 51 50 49 48 46 46 45 44 43 43 44 45 46 47
49 49 50 51 52 52 52 51 49 48 47 48 49 49 47 46 46 44 43 43 43 44 45 47 49 50 50 50 50 49 48 48 48 48 48 47 47 47 46 46 46 47 47 47 47 47 47 46 46 46 47 47 47 47 48 49 50 51 51 51 52 52 52 53 53 53 52 52 53 53 52 51 50 49 47 46 45 44 43 43 44 44 46 46 47
48 49 50 51 52 53 53 53 52 51 49 48 48 48 48 47 46 45 44 43 43 42 43 45 47 48 50 51 51 51 50 49 49 48 48 48 48 48 47 46 46 47 47 48 47 47 47 47 47 47 46 46 46 47 48 49 50 51 51 51 51 52 52 52 52 52 52 53 54 53 52 52 50 48 47 45 45 44 43 43 44 45 46 47 47
51 51 52 52 53 54 54 54 54 53 52 50 49 48 48 47 46 45 44 43 43 42 41 42 43 45 47 48 50 51 51 51 51 50 49 48 48 48 47 47 47 47 47 47 47 47 47 47 47 47 46 46 46 46 48 49 50 50 51 52 52 52 52 52 52 52 53 53 53 52 52 51 50 48 46 45 44 43 43 44 45 46 47 47 48
54 53 53 53 53 54 55 55 55 54 53 52 50 49 48 47 45 44 43 42 42 41 40 40 41 42 43 45 46 48 49 49 50 51 51 49 48 47 46 46 46 47 47 48 47 47 47 46 46 46 47 47 47 47 48 48 49 49 50 51 52 52 51 51 51 52 53 52 52 51 51 50 48 46 45 44 43 43 43 44 45 46 47 48 48
52 52 52 53 53 53 54 54 54 54 54 53 52 50 48 46 45 44 42 41 40 40 39 39 39 40 41 42 44 45 46 47 48 49 50 49 48 46 46 45 46 47 47 48 47 47 46 45 45 46 46 46 46 47 47 48 48 49 49 50 51 51 51 50 50 51 51 51 50 49 49 48 47 46 45 43 42 42 43 45 46 47 48 49 48
50 50 51 52 53 53 53 53 54 54 53 53 52 50 48 45 43 42 41 41 39 38 38 38 38 39 40 41 42 44 44 45 46 46 47 47 46 45 44 45 46 47 47 47 46 46 46 45 45 45 45 45 46 46 47 47 47 48 48 49 49 49 49 49 49 49 49 49 48 48 47 47 47 45 43 42 41 43 44 45 46 47 48 49 48
47 48 50 51 51 52 52 52 53 53 53 51 50 49 46 43 41 39 39 39 38 38 38 38 38 38 39 39 40 42 43 44 44 44 43 43 42 42 42 44 46 47 46 46 46 45 45 45 44 44 44 45 45 45 45 46 46 45 46 46 47 47 48 48 48 48 48 47 47 46 47 47 45 43 41 40 41 43 44 45 46 47 49 49 47
47 48 49 49 50 51 52 52 51 52 51 49 47 46 44 42 40 38 37 37 37 37 37 38 38 38 38 38 38 39 40 41 42 41 40 38 37 38 40 43 46 47 45 44 44 43 43 43 43 43 44 44 44 43 43 43 43 43 43 44 45 45 46 47 47 47 47 47 47 46 46 45 43 41 40 40 41 43 45 46 47 48 49 48 46
48 48 48 48 50 52 53 52 50 49 49 46 44 42 40 39 38 37 36 36 36 36 36 37 37 37 37 37 36 36 36 36 37 37 36 34 34 36 39 42 44 45 44 43 41 40 40 41 41 41 42 41 41 40 40 40 40 41 41 42 43 44 45 45 46 46 47 48 48 46 44 42 40 40 39 40 41 43 44 46 47 48 48 47 46
48 48 48 50 52 53 53 51 49 47 46 44 42 40 37 36 35 35 35 36 36 35 35 36 36 36 35 34 34 33 32 31 31 31 32 33 34 36 39 41 41 42 42 41 39 38 37 37 38 38 37 37 37 37 37 37 38 39 40 41 42 43 43 44 45 46 47 48 47 45 42 40 39 39 39 41 42 43 44 45 47 47 47 46 46
48 48 50 52 54 54 52 51 48 46 43 41 40 39 36 34 34 34 35 35 35 35 35 35 35 34 33 32 31 30 29 29 28 28 30 32 35 37 38 39 39 38 37 37 35 34 33 33 33 33 33 33 34 34 35 36 37 39 39 40 41 42 43 44 45 46 47 47 46 45 42 39 38 38 39 40 42 43 44 45 45 45 45 45 46
48 50 51 52 53 53 51 50 47 44 41 39 38 37 34 33 33 34 34 33 33 34 34 34 33 33 32 30 29 27 27 27 26 27 28 31 32 34 34 34 33 32 31 31 30 29 29 29 30 30 31 32 33 34 35 36 37 38 39 39 41 42 44 45 46 46 47 46 45 43 41 39 38 38 39 40 41 43 44 44 43 44 45 45 46
50 50 51 51 51 50 49 48 45 41 39 37 36 35 33 32 32 33 33 33 33 33 33 32 32 31 30 29 28 26 26 25 25 25 26 27 27 27 27 27 26 26 26 26 26 26 27 28 29 30 31 32 34 35 36 37 37 38 39 40 41 43 44 46 47 47 46 45 43 41 40 40 39 39 39 40 41 42 42 42 42 43 43 44 45
50 50 49 49 49 48 48 47 44 40 38 36 35 33 31 31 32 31 31 32 33 33 32 31 30 29 28 27 26 25 25 24 24 23 23 23 24 23 23 23 23 23 23 24 25 26 28 29 31 32 33 34 35 36 36 37 38 39 40 41 42 43 44 45 46 46 45 43 41 39 40 40 40 40 40 40 40 41 41 41 41 42 42 42 43
48 47 48 48 48 47 46 45 43 40 37 35 33 30 29 30 31 31 30 31 32 33 32 30 29 28 27 26 25 25 25 25 24 24 23 23 23 23 23 23 23 24 25 26 27 29 30 31 32 33 34 35 36 37 38 39 39 40 40 41 42 43 44 44 44 44 43 42 41 40 40 41 40 40 39 39 39 40 39 39 39 40 41 42 42
45 46 46 46 46 45 44 43 42 39 36 34 30 28 28 29 30 30 30 31 31 31 30 29 28 27 26 25 25 24 25 25 25 25 25 25 25 25 25 26 26 27 28 29 30 31 32 33 34 35 36 36 37 37 38 38 39 40 40 41 42 42 42 41 41 41 41 41 42 42 41 41 40 39 38 38 38 38 38 38 38 39 40 41 42
45 45 45 45 44 43 43 42 39 36 34 31 27 26 26 28 29 29 30 31 31 30 28 27 27 26 25 25 24 24 24 25 25 26 27 27 28 28 29 29 30 31 32 32 33 34 34 35 35 36 36 37 36 35 35 36 37 38 39 39 39 39 39 39 39 39 40 41 42 42 41 40 38 37 37 37 37 37 37 37 38 38 39 40 41
45 45 44 44 43 42 41 39 36 34 31 29 26 25 25 27 27 28 29 30 29 28 27 26 26 25 25 24 23 23 23 24 24 25 27 28 29 30 31 31 32 33 34 34 34 34 34 35 35 35 35 35 34 34 34 36 37 36 36 36 36 36 37 37 38 39 40 41 41 41 40 38 37 37 36 36 36 36 37 37 37 38 39 40 41
44 44 43 43 42 41 39 36 34 32 30 27 24 24 25 25 26 27 28 28 28 27 25 24 24 24 23 23 23 23 23 23 23 24 25 26 27 28 29 30 31 32 32 33 32 32 32 32 32 31 32 32 31 32 33 34 35 34 34 34 34 35 35 36 37 38 39 40 39 39 38 37 36 36 36 36 35 36 36 36 37 38 39 41 42
Wind_Direction
286 274 268 265 263 262 260 259 257 257 257 257 257 257 258 257 256 255 253 250 247 245 246 247 248 249 250 251 252 253 254 253 250 247 247 243 237 234 234 235 237 238 238 238 238 237 237 238 240 241 241 242 244 245 247 251 256 260 263 266 269 271 274 276 277 279 280 281 281 281 280 280 279 278 276 276 275 275 275 275 276 276 276 276 276
285 280 277 273 270 267 265 263 262 260 258 258 259 260 260 260 259 258 256 254 252 251 250 251 252 253 254 254 254 253 253 252 248 246 245 239 234 234 233 234 237 238 239 238 238 238 238 240 241 242 241 241 242 244 248 252 256 259 262 266 269 272 274 277 279 281 282 283 282 281 281 280 279 278 277 276 275 275 275 275 276 276 276 276 276
290 287 284 279 276 272 269 269 269 266 262 259 260 259 258 259 259 259 258 257 257 256 254 255 256 256 256 255 252 250 250 248 244 243 241 235 232 231 231 232 234 236 237 237 237 239 239 240 241 240 239 240 242 244 248 252 256 260 264 267 270 273 276 279 282 284 285 285 283 282 282 280 279 278 278 277 277 276 276 276 276 277 277 277 277
295 288 284 280 276 273 271 272 273 271 268 265 262 261 260 261 261 261 261 260 259 258 258 258 257 256 254 252 248 246 246 243 239 237 235 233 230 230 231 232 233 235 237 237 238 239 240 241 241 240 239 240 242 245 249 253 257 261 265 267 271 275 279 281 284 285 286 285 284 283 282 281 280 279 279 277 277 277 277 277 278 278 278 278 278
297 287 281 278 275 273 271 270 270 269 268 268 266 265 264 264 263 262 261 260 259 259 259 258 255 252 251 249 246 244 243 241 236 233 233 233 232 233 235 235 236 237 238 240 240 240 241 241 241 241 239 241 243 246 250 254 259 263 266 268 272 277 280 282 285 286 286 285 285 284 283 282 281 280 280 279 278 278 278 278 278 279 279 279 279
292 282 276 276 275 273 271 269 269 268 269 270 269 267 264 262 261 259 258 259 259 259 258 256 253 252 250 249 247 246 245 244 241 238 238 239 239 239 240 241 241 241 241 243 244 244 244 243 243 242 241 242 244 247 251 256 261 265 267 270 273 277 280 282 285 285 286 286 286 284 282 282 281 281 281 280 279 279 278 279 279 279 279 280 280
282 274 269 271 274 273 272 271 271 272 273 272 267 264 261 259 259 258 259 259 259 259 257 254 252 251 250 250 250 249 248 248 246 243 243 243 243 242 242 243 244 244 244 245 246 247 247 246 245 243 242 242 244 247 252 257 262 265 268 271 273 276 279 282 284 285 287 287 285 284 282 281 281 281 280 280 280 279 279 279 279 279 280 280 280
275 270 266 265 266 267 267 268 268 269 268 264 260 259 258 257 257 256 256 256 256 256 255 253 252 252 251 251 250 250 249 249 248 245 244 243 242 241 241 242 243 244 245 245 247 248 248 247 246 244 243 243 245 248 252 257 261 265 268 271 273 275 278 280 282 284 286 287 286 285 283 282 280 280 279 279 279 279 280 280 280 280 280 280 280
271 269 266 264 263 261 259 258 259 260 261 260 259 256 253 250 250 250 250 251 252 252 252 252 252 252 252 251 250 250 249 248 247 245 243 243 242 241 240 241 242 243 243 244 245 246 247 247 246 244 243 244 246 248 252 256 261 265 268 270 271 274 277 279 280 283 285 287 288 287 285 283 281 280 279 278 279 279 280 281 281 281 280 280 280
267 267 266 264 263 261 258 255 253 253 256 259 261 259 257 253 251 252 253 253 252 252 252 252 252 252 251 251 251 250 249 248 246 245 243 243 242 241 241 241 243 244 243 243 243 245 247 247 246 246 244 244 245 248 251 256 261 264 266 267 270 273 275 277 278 280 283 287 289 289 287 285 282 280 279 279 279 279 280 281 281 281 280 280 280
261 261 262 263 264 263 261 257 252 249 248 251 256 260 262 260 258 259 259 258 257 256 255 254 253 252 252 252 252 251 250 249 247 246 245 244 244 243 242 243 244 245 245 244 242 243 246 248 249 248 246 245 245 248 251 256 259 261 263 266 269 272 273 275 276 279 282 285 288 290 289 286 284 283 281 280 279 279 280 280 280 280 280 280 280
261 256 257 259 263 264 262 260 256 250 246 244 244 247 252 255 256 257 259 260 261 261 261 259 258 256 255 255 254 253 252 250 248 247 247 247 247 245 244 243 243 244 245 244 243 243 245 249 251 250 248 246 247 248 251 255 257 259 261 265 268 270 272 274 275 277 281 284 288 289 290 289 288 285 283 281 280 279 279 279 279 280 280 280 280
266 257 253 257 264 265 260 258 257 252 247 242 239 237 239 243 246 249 252 256 259 259 260 262 261 261 260 259 258 257 254 252 250 249 249 249 249 248 246 244 244 244 244 245 245 246 248 251 253 253 250 248 247 248 250 253 255 257 260 263 266 268 270 272 274 277 279 282 286 289 290 291 290 288 285 283 282 280 280 280 279 279 279 279 279
273 262 257 261 266 264 255 252 252 249 245 242 238 235 234 236 239 241 243 246 249 251 254 256 258 261 262 262 261 260 258 256 254 252 250 250 250 250 249 247 246 246 246 246 245 246 249 251 253 253 250 246 245 246 249 251 253 256 259 261 264 267 269 271 273 276 277 280 283 287 289 291 291 290 287 285 283 282 281 280 279 279 279 279 279
281 271 266 267 267 258 248 246 246 243 240 238 236 236 235 234 233 235 235 236 238 242 244 247 250 253 256 257 259 259 259 258 256 254 252 251 251 251 251 250 249 249 248 247 245 245 247 249 251 251 248 244 244 246 248 249 252 255 258 260 263 265 268 270 272 273 275 278 280 284 287 289 290 290 288 285 283 282 281 280 280 279 279 278 278
289 286 282 278 270 259 249 245 243 239 237 235 234 235 237 236 235 235 234 235 237 239 240 242 243 244 245 247 251 254 255 256 256 255 254 253 253 252 252 252 251 250 249 247 245 244 245 247 248 249 246 243 244 246 247 249 252 255 257 259 262 264 267 268 270 271 274 276 278 281 284 288 289 289 288 286 283 281 280 280 279 279 279 278 277
298 296 293 288 281 272 260 249 242 238 236 235 236 237 239 240 240 239 237 237 238 240 243 246 246 246 245 244 244 246 249 251 253 255 255 255 253 252 252 252 251 251 249 247 245 244 245 246 246 246 243 242 243 245 247 250 253 254 256 259 262 264 266 267 269 271 272 274 277 279 282 285 288 289 288 285 282 281 280 279 279 279 278 277 277
304 299 294 289 285 282 272 258 248 243 242 242 242 243 244 246 247 247 247 245 245 247 250 252 253 253 251 248 245 243 244 245 247 250 252 252 251 250 251 251 251 252 251 249 246 244 245 246 246 245 242 241 243 246 248 250 253 255 257 258 261 263 265 267 269 270 271 273 275 278 281 284 286 287 287 284 282 280 279 279 279 278 278 277 276
294 294 295 295 294 293 288 277 266 259 257 255 253 253 253 254 256 257 258 258 257 258 258 260 262 259 254 251 248 246 243 242 243 245 247 247 248 249 250 250 250 250 251 250 247 245 244 245 245 244 242 242 244 246 248 250 253 255 257 258 260 262 264 266 268 269 270 272 274 276 279 282 284 285 285 283 281 279 278 278 278 278 277 276 275
284 285 290 296 300 303 302 299 292 285 279 275 271 269 267 266 265 265 265 266 266 267 268 269 269 265 260 257 255 252 248 245 243 242 243 243 244 246 247 247 248 248 249 249 248 245 244 244 244 244 243 243 244 246 248 251 253 255 257 258 259 260 263 265 267 268 269 270 273 275 278 281 283 284 283 282 280 278 276 276 276 276 276 275 274
292 291 293 297 301 303 304 303 301 297 293 288 283 280 276 274 273 272 272 271 272 273 274 275 274 272 269 267 264 261 257 252 248 245 242 241 241 242 243 245 246 246 247 247 247 246 245 244 243 244 244 244 245 247 249 251 253 255 257 258 258 259 261 264 265 266 268 269 272 274 277 280 282 282 282 281 278 276 275 275 275 275 275 274 273
306 305 303 303 303 303 302 301 299 297 294 291 288 284 281 278 276 274 273 274 275 275 276 275 275 274 272 270 269 267 264 259 253 249 245 242 241 241 241 242 243 244 245 247 247 247 246 245 244 244 244 245 246 247 249 250 252 254 256 258 258 258 260 262 264 266 267 269 271 273 276 279 280 281 281 279 277 275 273 273 274 274 273 273 272
309 308 307 306 305 305 303 300 297 294 291 288 285 282 281 279 278 276 275 275 275 275 275 274 273 271 270 269 268 267 265 261 255 249 246 244 242 241 241 241 241 241 243 244 245 246 246 246 245 245 245 245 246 247 249 250 252 254 256 258 258 257 258 261 263 265 266 267 270 272 275 278 279 279 279 277 275 273 272 272 272 272 272 271 270
310 310 309 308 308 306 304 301 298 294 291 287 283 279 277 276 275 274 273 272 271 270 269 268 268 267 268 269 268 267 265 261 255 250 246 244 243 242 241 240 239 239 239 241 242 244 245 245 245 246 246 247 247 248 249 251 252 254 255 257 257 256 257 260 262 264 265 266 269 272 275 277 278 278 277 275 273 272 271 271 271 271 270 270 269
310 310 310 310 310 309 307 306 305 303 299 295 290 285 280 277 275 272 270 267 265 264 262 262 262 262 263 265 266 267 265 262 258 255 251 248 246 244 243 241 240 239 238 238 239 241 243 244 245 246 247 248 249 249 250 251 252 253 254 255 255 254 255 258 261 262 264 266 269 271 274 276 276 277 276 274 272 270 269 269 269 269 269 268 268
309 310 310 311 310 309 307 305 305 304 303 302 299 296 291 286 283 280 276 272 268 265 263 262 261 261 262 262 263 263 263 262 261 259 256 253 251 248 246 244 243 241 240 238 238 238 240 242 244 245 247 248 249 249 250 251 252 253 253 253 253 252 254 257 259 262 263 265 268 271 273 275 275 275 274 272 270 268 267 267 267 268 267 267 267
311 312 312 311 309 308 306 304 302 300 299 299 299 299 297 295 292 290 287 283 279 274 270 267 266 265 265 264 264 263 262 262 261 261 260 258 256 253 250 248 247 245 244 242 240 239 239 240 241 244 246 247 247 248 248 249 250 251 251 251 251 250 253 256 258 261 263 265 267 270 272 273 274 273 271 269 267 266 266 265 265 265 265 265 265
313 314 313 312 310 307 306 304 303 300 298 297 297 296 296 296 295 293 291 290 287 284 280 275 271 268 267 266 265 264 263 262 262 262 262 261 260 257 255 253 251 249 248 247 245 243 241 240 240 242 244 246 248 248 248 248 248 248 249 249 249 249 252 255 258 261 262 264 267 269 271 272 272 271 269 266 265 264 263 263 263 263 264 264 265
312 313 312 311 310 309 308 307 305 303 300 299 297 296 295 294 292 291 290 288 287 286 284 282 278 274 271 269 267 266 264 263 263 262 262 262 261 260 259 257 256 254 253 251 250 248 246 244 242 242 243 245 247 249 250 249 248 247 247 247 247 249 252 255 258 260 262 263 266 268 270 271 270 269 266 264 263 262 262 261 261 262 262 263 263
313 312 310 310 309 309 309 308 306 304 302 300 298 296 295 293 291 289 288 285 283 282 281 280 279 278 275 273 271 269 267 266 265 264 264 263 262 262 262 261 260 259 257 255 253 251 249 248 246 245 245 246 247 249 250 249 247 246 245 245 247 249 253 255 258 260 261 263 266 268 269 269 268 267 264 262 261 260 260 260 260 260 261 262 262
315 314 313 311 310 308 307 306 306 306 304 301 299 297 296 294 292 290 288 285 281 279 277 276 275 275 274 274 272 271 269 268 267 266 265 265 264 264 264 264 263 262 261 260 257 255 253 251 249 248 246 246 247 249 249 248 246 245 244 246 248 251 254 256 258 260 261 264 266 268 268 268 267 265 263 261 260 259 258 258 258 259 260 260 261
317 317 315 313 310 309 308 308 307 306 304 302 300 299 297 295 293 292 290 288 283 279 276 273 272 271 271 270 270 270 269 268 267 266 266 265 265 264 264 264 264 264 263 262 261 259 257 255 252 249 247 247 247 248 248 247 245 245 245 247 250 252 255 257 258 259 261 264 266 267 267 267 266 264 261 259 258 257 257 257 258 258 259 260 260
315 313 312 311 310 311 311 310 309 308 306 304 302 300 297 295 294 294 293 292 289 285 280 275 272 271 270 269 269 268 267 266 266 266 265 265 264 264 263 262 262 261 261 261 260 259 258 255 253 250 248 246 246 247 247 246 245 246 247 249 252 254 255 257 258 259 261 264 265 266 266 266 265 262 259 258 257 256 256 256 257 258 259 259 260
312 312 312 312 312 313 312 311 311 310 308 306 303 300 297 295 294 294 294 293 292 290 286 282 278 275 273 272 270 269 267 266 266 265 264 264 263 262 262 261 260 260 259 258 257 257 256 254 252 249 247 245 245 246 246 246 247 248 249 251 253 254 256 257 258 260 262 264 264 264 265 265 263 260 257 256 255 255 255 256 256 257 258 259 259
316 316 315 315 314 313 312 311 310 310 309 307 305 302 298 295 293 292 292 292 291 290 289 287 284 281 279 277 275 273 271 269 268 267 266 264 262 260 259 258 258 259 258 257 256 255 254 253 251 248 246 245 245 246 247 247 248 250 251 252 253 255 256 258 259 260 262 262 263 263 264 263 261 258 256 255 254 254 254 255 256 257 258 258 259
317 316 315 314 313 311 310 310 309 308 308 308 307 305 301 297 294 293 291 291 290 290 289 288 286 285 284 282 281 279 276 273 272 270 269 268 265 262 258 256 256 256 256 256 255 254 254 252 250 248 247 246 245 246 248 249 250 252 253 254 254 255 256 257 259 260 261 261 262 263 263 261 259 256 255 253 253 253 254 254 255 256 257 258 258
315 314 313 313 311 310 309 308 307 307 307 307 307 306 303 298 294 293 292 291 289 288 287 286 286 285 285 284 283 282 280 278 276 273 272 271 269 264 259 255 254 254 253 253 253 252 251 250 248 247 246 245 245 246 248 250 251 252 253 254 255 255 256 257 258 259 260 261 262 262 261 259 257 255 253 253 253 253 253 254 255 256 257 258 259
313 312 311 311 310 309 308 307 306 306 306 306 305 304 302 298 294 293 293 292 290 289 287 286 286 286 286 285 284 283 282 280 279 276 274 272 269 266 260 256 253 252 250 249 248 247 246 245 245 244 243 243 244 245 246 248 249 251 252 253 254 255 257 258 258 259 260 262 262 261 259 257 255 253 253 253 253 253 253 254 255 257 258 259 259
312 311 310 309 309 309 308 307 307 306 305 305 304 303 301 298 295 294 294 293 293 292 291 290 288 287 286 285 284 283 282 282 281 279 276 273 269 264 259 255 252 249 245 243 243 242 242 241 241 240 240 240 241 243 245 247 249 251 252 254 254 256 257 258 259 260 262 262 261 259 257 256 254 253 253 253 253 253 254 255 255 256 258 259 259
311 310 309 308 309 311 311 310 308 307 306 306 304 302 300 297 296 296 295 294 294 293 293 293 292 290 289 287 284 283 282 282 282 281 278 274 267 261 257 254 251 246 242 239 238 238 238 238 238 238 239 240 241 243 246 248 249 250 252 254 255 257 258 260 261 262 263 263 261 257 254 253 253 253 253 253 253 253 254 255 256 257 258 259 259
311 311 312 312 313 314 314 312 309 308 308 307 305 302 298 296 296 297 296 295 294 294 294 294 293 293 291 289 287 285 284 283 281 279 276 272 266 260 256 253 249 244 240 238 236 235 236 236 237 238 240 241 243 245 247 248 249 251 254 256 257 258 260 261 262 263 263 263 261 257 254 252 252 253 253 253 253 252 253 255 257 258 259 260 259
310 312 315 316 314 314 314 312 309 309 308 307 306 303 299 296 296 297 297 296 296 296 296 295 295 294 293 291 288 287 287 285 281 277 273 270 265 259 255 251 247 243 241 239 237 237 237 238 239 241 242 244 245 246 248 250 252 254 256 258 259 260 261 262 262 263 262 262 260 258 256 253 252 252 252 252 252 252 253 255 257 259 260 260 260
311 313 315 315 314 313 312 310 309 309 308 307 306 303 299 297 297 297 297 297 297 298 298 298 297 296 293 291 287 287 288 288 286 282 277 271 264 257 253 249 244 242 241 240 240 240 241 241 242 243 244 245 247 249 251 253 255 257 259 260 262 263 263 263 262 261 260 260 259 257 256 255 254 253 252 251 251 251 251 253 255 257 259 260 260
313 314 314 314 312 312 311 309 308 308 307 307 306 303 299 298 298 298 297 298 299 300 300 299 298 297 294 290 287 285 287 289 288 284 277 270 261 253 249 245 242 240 240 240 241 241 242 243 244 245 247 249 251 253 255 257 259 261 262 263 263 263 263 263 262 261 259 258 257 257 256 255 254 253 252 251 251 251 251 252 253 255 257 259 261
313 313 313 313 312 311 310 309 308 307 307 307 307 304 300 298 298 298 299 301 302 301 300 300 298 297 294 290 286 284 284 285 285 281 274 265 258 252 247 243 240 239 239 239 240 241 243 245 247 249 251 254 255 257 259 260 262 263 263 263 262 262 262 262 262 261 259 257 256 256 256 255 254 253 252 251 251 252 252 254 254 255 257 259 261
312 312 313 313 312 312 310 309 308 307 307 307 307 305 301 298 298 299 301 304 304 303 302 300 299 297 294 290 286 283 281 281 281 279 274 268 261 256 251 247 244 242 242 243 244 245 247 250 252 254 256 258 259 261 262 263 263 263 262 262 261 260 259 259 259 260 259 258 257 255 255 254 253 252 251 251 252 253 254 255 257 258 258 259 260
312 313 313 313 313 312 310 308 307 308 309 309 308 304 300 298 299 301 305 306 305 303 302 301 299 297 295 292 287 283 281 278 277 276 274 272 268 264 260 256 254 252 252 252 252 253 255 257 259 261 262 263 264 264 264 263 263 262 260 258 258 257 257 257 257 259 260 260 259 257 254 253 253 252 252 253 253 255 256 257 258 259 259 260 260
313 313 314 314 314 313 311 310 309 311 312 311 307 303 300 298 300 303 307 307 304 303 302 301 299 298 296 293 290 286 282 279 276 274 272 271 270 268 266 264 262 261 261 260 260 261 263 265 266 267 267 267 266 266 265 263 262 260 258 257 256 256 256 257 257 258 258 259 258 257 256 255 255 255 255 255 256 256 256 256 256 257 258 259 261
314 314 314 314 314 314 313 313 314 316 315 311 307 303 299 298 302 306 307 306 305 305 304 301 300 298 296 294 291 288 284 281 278 275 273 271 270 269 268 268 267 267 267 267 268 269 270 270 271 270 269 268 266 265 262 260 258 257 256 256 255 255 256 256 256 257 257 257 257 258 258 258 259 259 258 258 258 258 258 257 257 258 259 261 262
314 314 314 315 315 314 314 316 318 318 314 310 306 302 299 300 304 307 307 306 306 306 305 302 301 300 298 296 294 291 288 284 281 278 276 274 272 271 271 271 271 271 271 272 272 273 273 272 271 270 268 266 263 260 258 256 256 255 254 255 255 255 255 255 255 256 256 256 257 258 259 260 261 261 260 260 260 260 260 260 260 261 261 262 263
314 314 315 315 315 313 314 316 317 316 312 309 305 301 300 303 307 308 308 308 308 308 306 304 302 301 300 298 297 294 292 289 285 282 280 277 276 274 274 273 272 272 273 273 273 273 272 271 269 267 265 262 259 257 255 255 255 254 254 255 254 254 254 254 254 255 255 256 257 259 260 261 261 261 261 261 262 262 262 262 262 262 262 264 266